When you browse on this site, cookies collect data to enhance your experience and personalize the content and advertising you see.
Visit our Privacy Policy to learn more. By continuing to use the site, you agree to this use of cookies and data.
  • In Hungary
  • List of Countries
  • For 7 days
  • Water Temperature
  • Satellite Maps
  • Weather Map
  • News
  • Weather Widgets
  • user-avatar
    Login

    Hourly Weather Georgievka

    Today, 21 November, Wednesday

    Time Temperature Precipitation Wind Pressure Humidity
    00:00 -4°C° 0 mm 2 mps 759 mmHg 89%
    01:00 -4°C° 0 mm 2 mps 759 mmHg 90%
    02:00 -4°C° 0 mm 2 mps 758 mmHg 90%
    03:00 -5°C° 0 mm 2 mps 758 mmHg 91%
    04:00 -6°C° 0 mm 3 mps 758 mmHg 91%
    05:00 -5°C° 0 mm 3 mps 757 mmHg 90%
    06:00 -5°C° 0 mm 3 mps 757 mmHg 90%
    07:00 -5°C° 0.2 mm 4 mps 756 mmHg 89%
    08:00 -4°C° 0.2 mm 4 mps 755 mmHg 88%
    09:00 -5°C° 0.2 mm 5 mps 755 mmHg 87%
    10:00 -5°C° 0.4 mm 5 mps 754 mmHg 86%
    11:00 -5°C° 0.4 mm 5 mps 754 mmHg 85%
    12:00 -5°C° 0.4 mm 6 mps 754 mmHg 84%
    13:00 -5°C° 0.1 mm 5 mps 753 mmHg 83%
    14:00 -5°C° 0.1 mm 5 mps 753 mmHg 82%
    15:00 -5°C° 0.1 mm 5 mps 752 mmHg 81%
    16:00 -5°C° 0 mm 5 mps 752 mmHg 82%
    17:00 -5°C° 0 mm 5 mps 752 mmHg 84%
    18:00 -5°C° 0 mm 5 mps 752 mmHg 86%
    19:00 -5°C° 0 mm 5 mps 752 mmHg 84%
    20:00 -6°C° 0 mm 5 mps 753 mmHg 82%
    21:00 -6°C° 0 mm 5 mps 753 mmHg 79%
    22:00 -7°C° 0 mm 5 mps 753 mmHg 79%
    23:00 -7°C° 0 mm 5 mps 753 mmHg 78%

    Tomorrow, 22 November, Thursday

    Time Temperature Precipitation Wind Pressure Humidity
    00:00 -8°C° 0 mm 5 mps 753 mmHg 77%
    01:00 -8°C° 0 mm 4 mps 753 mmHg 79%
    02:00 -8°C° 0 mm 4 mps 753 mmHg 80%
    03:00 -8°C° 0 mm 4 mps 753 mmHg 82%
    04:00 -8°C° 0 mm 4 mps 753 mmHg 83%
    05:00 -9°C° 0 mm 4 mps 753 mmHg 84%
    06:00 -9°C° 0 mm 4 mps 753 mmHg 86%
    07:00 -8°C° 0 mm 4 mps 753 mmHg 85%
    08:00 -8°C° 0 mm 4 mps 753 mmHg 84%
    09:00 -8°C° 0 mm 4 mps 753 mmHg 83%
    10:00 -7°C° 0 mm 4 mps 753 mmHg 82%
    11:00 -6°C° 0 mm 5 mps 752 mmHg 80%
    12:00 -6°C° 0 mm 5 mps 752 mmHg 78%
    13:00 -6°C° 0 mm 5 mps 752 mmHg 79%
    14:00 -6°C° 0 mm 5 mps 751 mmHg 80%
    15:00 -6°C° 0 mm 5 mps 751 mmHg 81%
    16:00 -6°C° 0 mm 5 mps 751 mmHg 82%
    17:00 -6°C° 0 mm 5 mps 750 mmHg 83%
    18:00 -7°C° 0 mm 4 mps 750 mmHg 84%
    19:00 -7°C° 0 mm 5 mps 749 mmHg 84%
    20:00 -7°C° 0 mm 5 mps 749 mmHg 84%
    21:00 -7°C° 0 mm 5 mps 748 mmHg 83%
    22:00 -7°C° 0 mm 5 mps 748 mmHg 84%
    23:00 -8°C° 0 mm 6 mps 747 mmHg 85%

    Day after tomorrow, 23 November, Friday

    Time Temperature Precipitation Wind Pressure Humidity
    00:00 -8°C° 0 mm 6 mps 746 mmHg 85%
    01:00 -8°C° 0.4 mm 7 mps 745 mmHg 87%
    02:00 -7°C° 0.4 mm 7 mps 744 mmHg 88%
    03:00 -7°C° 0.4 mm 8 mps 743 mmHg 90%
    04:00 -7°C° 0.5 mm 8 mps 742 mmHg 87%
    05:00 -7°C° 0.5 mm 8 mps 742 mmHg 84%
    06:00 -7°C° 0.5 mm 8 mps 741 mmHg 81%
    07:00 -9°C° 0.1 mm 9 mps 742 mmHg 80%
    08:00 -10°C° 0.1 mm 10 mps 742 mmHg 80%
    09:00 -11°C° 0.1 mm 11 mps 743 mmHg 79%
    10:00 -11°C° 0.3 mm 11 mps 744 mmHg 79%
    11:00 -12°C° 0.3 mm 11 mps 745 mmHg 78%
    12:00 -12°C° 0.3 mm 12 mps 745 mmHg 77%
    13:00 -12°C° 0.2 mm 11 mps 746 mmHg 76%
    14:00 -13°C° 0.2 mm 11 mps 747 mmHg 76%
    15:00 -13°C° 0.2 mm 11 mps 749 mmHg 75%
    16:00 -13°C° 0 mm 10 mps 750 mmHg 75%
    17:00 -13°C° 0 mm 10 mps 751 mmHg 76%
    18:00 -13°C° 0 mm 10 mps 752 mmHg 76%
    19:00 -12°C° 0 mm 9 mps 754 mmHg 76%
    20:00 -14°C° 0 mm 9 mps 755 mmHg 77%
    21:00 -13°C° 0 mm 8 mps 756 mmHg 78%
    22:00 -13°C° 0 mm 7 mps 757 mmHg 80%
    23:00 -14°C° 0 mm 6 mps 758 mmHg 83%

    24 November, Saturday

    Time Temperature Precipitation Wind Pressure Humidity
    00:00 -14°C° 0 mm 6 mps 759 mmHg 85%
    01:00 -13°C° 0 mm 5 mps 759 mmHg 86%
    02:00 -13°C° 0 mm 5 mps 760 mmHg 87%
    03:00 -12°C° 0 mm 4 mps 761 mmHg 87%
    04:00 -12°C° 0 mm 4 mps 761 mmHg 86%
    05:00 -11°C° 0 mm 4 mps 761 mmHg 85%
    06:00 -11°C° 0 mm 4 mps 761 mmHg 84%
    07:00 -12°C° 0 mm 5 mps 762 mmHg 82%
    08:00 -12°C° 0 mm 5 mps 762 mmHg 80%
    09:00 -11°C° 0 mm 5 mps 762 mmHg 78%
    10:00 -10°C° 0 mm 5 mps 762 mmHg 77%
    11:00 -10°C° 0 mm 5 mps 762 mmHg 76%
    12:00 -9°C° 0 mm 6 mps 762 mmHg 75%
    13:00 -9°C° 0 mm 6 mps 762 mmHg 76%
    14:00 -9°C° 0 mm 6 mps 762 mmHg 77%
    15:00 -9°C° 0 mm 6 mps 762 mmHg 78%
    16:00 -9°C° 0 mm 6 mps 762 mmHg 78%
    17:00 -9°C° 0 mm 6 mps 761 mmHg 77%
    18:00 -9°C° 0 mm 7 mps 761 mmHg 77%
    19:00 -9°C° 0 mm 6 mps 761 mmHg 77%
    20:00 -9°C° 0 mm 6 mps 761 mmHg 77%
    21:00 -9°C° 0 mm 6 mps 761 mmHg 77%
    22:00 -9°C° 0 mm 6 mps 761 mmHg 78%
    23:00 -9°C° 0 mm 6 mps 761 mmHg 79%

    25 November, Sunday

    Time Temperature Precipitation Wind Pressure Humidity
    00:00 -8°C° 0 mm 6 mps 761 mmHg 80%
    01:00 -8°C° 0 mm 6 mps 760 mmHg 80%
    02:00 -8°C° 0 mm 6 mps 760 mmHg 81%
    03:00 -9°C° 0 mm 6 mps 760 mmHg 82%
    04:00 -9°C° 0 mm 6 mps 760 mmHg 82%
    05:00 -9°C° 0 mm 6 mps 759 mmHg 82%
    06:00 -9°C° 0 mm 6 mps 759 mmHg 82%
    07:00 -9°C° 0 mm 6 mps 759 mmHg 82%
    08:00 -9°C° 0 mm 7 mps 759 mmHg 82%
    09:00 -8°C° 0 mm 7 mps 759 mmHg 81%
    10:00 -8°C° 0 mm 7 mps 759 mmHg 80%
    11:00 -7°C° 0 mm 7 mps 759 mmHg 79%
    12:00 -6°C° 0 mm 7 mps 758 mmHg 78%
    13:00 -6°C° 0 mm 7 mps 758 mmHg 78%
    14:00 -5°C° 0 mm 6 mps 758 mmHg 79%
    15:00 -5°C° 0 mm 6 mps 758 mmHg 80%
    16:00 -5°C° 0.2 mm 6 mps 758 mmHg 81%
    17:00 -6°C° 0.2 mm 5 mps 758 mmHg 83%
    18:00 -6°C° 0.2 mm 5 mps 758 mmHg 85%
    19:00 -6°C° 0.1 mm 5 mps 758 mmHg 86%
    20:00 -5°C° 0.1 mm 4 mps 758 mmHg 88%
    21:00 -5°C° 0.1 mm 3 mps 758 mmHg 90%
    22:00 -5°C° 0.1 mm 3 mps 758 mmHg 91%
    23:00 -5°C° 0.1 mm 3 mps 758 mmHg 92%

    26 November, Monday

    Time Temperature Precipitation Wind Pressure Humidity
    00:00 -4°C° 0.1 mm 2 mps 758 mmHg 94%
    01:00 -4°C° 0.1 mm 2 mps 758 mmHg 94%
    02:00 -4°C° 0.1 mm 2 mps 758 mmHg 94%
    03:00 -4°C° 0.1 mm 2 mps 758 mmHg 95%
    04:00 -4°C° 0 mm 2 mps 758 mmHg 95%
    05:00 -4°C° 0 mm 2 mps 758 mmHg 94%
    06:00 -4°C° 0 mm 2 mps 758 mmHg 94%
    07:00 -4°C° 0 mm 2 mps 758 mmHg 93%
    08:00 -4°C° 0 mm 2 mps 758 mmHg 93%
    09:00 -5°C° 0 mm 3 mps 758 mmHg 92%
    10:00 -4°C° 0.1 mm 3 mps 757 mmHg 91%
    11:00 -4°C° 0.1 mm 3 mps 757 mmHg 90%
    12:00 -3°C° 0.1 mm 4 mps 756 mmHg 89%
    13:00 -3°C° 0.1 mm 4 mps 756 mmHg 90%
    14:00 -3°C° 0.1 mm 4 mps 756 mmHg 91%
    15:00 -2°C° 0.1 mm 4 mps 755 mmHg 92%
    16:00 -2°C° 0.3 mm 4 mps 755 mmHg 92%
    17:00 -2°C° 0.3 mm 5 mps 754 mmHg 92%
    18:00 -3°C° 0.3 mm 6 mps 754 mmHg 92%
    19:00 -3°C° 0.3 mm 6 mps 754 mmHg 92%
    20:00 -2°C° 0.3 mm 6 mps 753 mmHg 91%
    21:00 -2°C° 0.3 mm 6 mps 753 mmHg 91%
    22:00 -3°C° 0.3 mm 6 mps 753 mmHg 91%
    23:00 -3°C° 0.3 mm 6 mps 752 mmHg 91%
    Show more